カタログに戻る

FENGYUN 1C DEB

運用中SSO
NORAD 46449·DEBRIS·🇨🇳 China

打ち上げ May 10, 1999 から Taiyuan Satellite Launch Center

Loading…

次のパス (今後24時間)

TLE

経年Source: Space-Track

元期: Sep 3, 2026, 13:05 UTC

1 46449U 99025EZE 26246.54540264  .00000444  00000-0  18930-3 0  9998
2 46449  98.6184 279.3191 0201629 225.8907 132.5528 14.19649179613939

AllMySatでFENGYUN 1C DEBをリアルタイム追跡

Download on the App Store